Location: Carri�res
(48.9069°N, 2.1792°E)
Time: 04:45:58
(UTC+00:00)

CZ-2D R/B - Pass Details

Date: 17 January 2021
Orbit: 520 x 538 km, 97.4° (Epoch: 26 February)

Event Time Altitude Azimuth Distance (km) Brightness Sun altitude
Rises 17:23:05 0° 145° (SE) 2,678 6.7 -9.3°
Reaches altitude 10° 17:25:17 10° 137° (SE) 1,790 5.7 -9.7°
Maximum altitude 17:28:51 37° 70° (ENE) 847 3.8 -10.2°
Drops below altitude 10° 17:32:26 10° 2° (N) 1,795 5.7 -10.8°
Sets 17:34:39 0° 354° (N) 2,687 6.7 -11.1°
